Temp
79 78 78 79 80 80 81 80 81 81 81 82 83 84 84 84 84 83 82 84 82 82 84 83 83 83 87 86 87 86 85 84 81 87 87 88 84 84 87 87 87 87 88
79 78 78 79 80 81 81 82 82 81 81 82 83 83 83 83 83 82 82 86 83 83 84 82 83 87 82 83 86 83 85 83 83 79 85 86 84 86 84 83 86 89 86
79 79 79 80 80 81 81 82 83 82 81 82 82 82 83 82 81 82 83 83 84 84 85 83 84 83 82 85 83 85 86 83 84 82 83 86 86 87 85 83 83 85 86
80 79 78 78 80 82 82 81 82 82 81 81 82 82 82 82 82 83 83 82 82 84 84 84 84 83 83 82 83 82 82 82 81 80 82 80 84 86 84 84 85 86 86
78 79 78 79 80 80 80 80 81 81 82 81 80 81 81 82 85 83 82 83 82 83 84 84 85 81 74 76 79 81 80 79 79 76 79 83 83 82 80 80 84 86 85
78 78 79 78 78 78 79 79 80 80 81 80 80 80 80 82 71 69 73 80 80 82 81 83 83 77 76 70 69 69 74 77 78 79 82 80 79 81 80 77 76 77 81
77 79 78 78 78 78 79 79 79 79 79 79 79 77 76 77 67 66 68 77 75 77 80 80 80 87 79 83 73 68 68 67 69 77 76 78 77 79 78 78 77 76 80
77 75 78 78 78 77 78 78 79 78 75 72 72 71 72 74 65 65 66 75 76 78 80 80 81 81 81 79 80 80 81 82 81 80 80 80 80 80 79 78 77 77 80
76 74 76 77 78 77 76 73 77 70 70 71 73 71 73 75 65 62 66 76 78 79 80 80 80 80 69 66 77 78 79 81 75 67 65 64 64 65 69 74 73 72 73
78 75 77 78 78 72 73 72 73 74 74 74 72 75 72 76 64 61 66 81 79 82 81 80 66 73 61 60 76 76 72 76 74 73 74 73 72 73 65 73 74 70 71
82 80 75 77 77 74 72 75 76 78 77 75 75 76 78 75 74 59 59 78 80 80 81 82 82 61 58 58 59 72 70 69 72 71 70 71 72 75 78 74 72 70 69
80 79 78 73 75 76 77 77 77 76 76 75 74 75 78 77 62 59 57 58 66 78 79 82 78 59 56 56 59 61 58 60 76 76 72 73 73 76 78 76 71 69 67
79 79 79 79 79 78 78 76 78 76 80 78 78 79 78 79 77 58 58 58 59 72 79 68 57 54 53 56 55 55 56 74 75 74 75 76 76 77 74 72 70 68 66
78 78 79 78 78 78 77 78 78 78 80 80 79 79 80 80 79 78 75 71 62 70 66 75 66 60 56 62 65 70 76 76 75 74 75 76 76 73 70 71 69 67 66
78 78 79 81 78 77 77 75 78 81 78 81 82 82 81 80 80 69 69 78 78 66 65 76 76 75 74 75 75 75 75 75 73 74 74 70 67 66 66 68 67 66 65
77 78 80 78 79 80 75 70 50 52 49 49 50 65 76 56 48 47 45 46 47 49 70 73 71 71 71 72 72 73 73 69 69 71 69 67 66 65 68 69 69 66 63
75 78 77 75 78 75 78 79 77 62 47 46 45 46 47 52 44 43 43 44 46 51 73 73 71 68 66 65 66 67 66 66 66 64 63 62 63 66 65 72 67 63 61
75 63 78 78 81 81 81 81 82 79 77 75 50 51 44 43 43 43 44 48 67 63 72 72 72 67 64 64 63 63 64 65 64 64 63 64 64 64 64 61 61 61 59
73 75 80 82 82 78 82 82 82 81 80 79 71 55 47 42 42 43 44 70 73 73 74 73 72 71 69 68 68 65 65 64 62 62 62 62 61 60 60 60 59 53 55
73 69 73 80 80 80 81 81 80 79 78 79 79 78 64 55 65 67 66 69 71 73 73 70 71 70 68 67 66 65 64 62 62 61 61 61 60 60 58 58 58 56 56
75 71 69 79 79 79 81 80 81 80 80 79 79 74 56 75 75 74 74 73 74 74 72 71 70 70 69 66 64 63 62 62 60 59 60 60 60 59 59 59 58 57 56
79 79 79 79 79 78 80 81 81 81 80 79 77 69 46 70 77 76 76 75 76 75 75 72 72 71 69 67 64 65 64 64 62 62 59 58 58 58 58 58 56 56 56
72 69 77 77 79 70 77 81 81 81 81 80 80 76 71 75 77 76 76 77 76 76 76 75 73 73 71 71 69 68 67 67 68 64 60 59 58 58 58 57 57 57 56
68 69 67 69 76 79 80 80 80 69 80 79 78 78 78 78 78 76 77 77 76 77 75 75 75 74 73 73 74 74 73 72 70 68 66 64 62 58 61 61 60 60 58
71 67 68 73 74 78 77 80 79 79 79 78 77 78 78 78 77 76 77 76 76 76 75 75 76 73 72 70 70 70 53 44 66 53 72 69 63 62 62 62 61 60 60
78 76 67 73 75 78 77 77 77 77 76 77 78 77 77 77 77 76 76 76 76 76 75 76 75 72 72 73 71 49 37 39 57 44 72 73 72 72 72 71 70 73 71
MSLP
1011.57 1012.24 1012.82 1013.41 1013.91 1014.35 1014.53 1014.86 1015.05 1015.39 1015.62 1015.70 1015.77 1015.92 1016.11 1016.31 1016.54 1016.70 1016.75 1016.88 1017.12 1017.27 1017.37 1017.33 1017.37 1017.51 1017.28 1017.31 1017.45 1017.49 1017.39 1017.41 1016.97 1016.49 1016.84 1016.65 1016.70 1016.59 1016.33 1016.50 1016.53 1016.49 1016.31
1010.99 1011.69 1012.31 1012.97 1013.51 1013.90 1014.22 1014.48 1014.84 1015.10 1015.42 1015.57 1015.66 1015.67 1015.78 1015.96 1016.19 1016.31 1016.33 1016.38 1016.73 1016.85 1017.00 1017.16 1017.09 1016.97 1017.22 1017.17 1017.00 1017.01 1016.86 1017.17 1017.02 1016.59 1016.36 1016.34 1016.44 1016.28 1016.31 1016.38 1016.06 1015.89 1015.98
1010.47 1011.15 1011.82 1012.43 1012.94 1013.33 1013.77 1014.14 1014.38 1014.64 1014.95 1015.28 1015.51 1015.51 1015.52 1015.64 1015.85 1015.99 1016.02 1016.16 1016.25 1016.40 1016.44 1016.68 1016.58 1016.72 1016.75 1016.64 1016.76 1016.54 1016.42 1016.83 1016.78 1016.71 1016.29 1016.19 1016.10 1015.97 1015.88 1015.97 1015.84 1015.53 1015.64
1009.86 1010.63 1011.32 1011.76 1012.23 1012.67 1013.15 1013.72 1014.02 1014.25 1014.53 1014.83 1015.09 1015.31 1015.47 1015.61 1015.77 1015.82 1015.93 1015.93 1015.99 1015.87 1016.07 1016.10 1016.23 1016.39 1016.36 1016.40 1016.42 1016.37 1016.40 1016.39 1016.43 1016.47 1016.07 1015.88 1015.68 1015.49 1015.67 1015.33 1015.10 1015.08 1014.94
1009.49 1010.14 1010.58 1010.97 1011.59 1012.25 1012.71 1013.03 1013.42 1013.82 1014.14 1014.43 1014.68 1014.95 1015.22 1015.34 1015.37 1015.51 1015.65 1015.58 1015.60 1015.57 1015.53 1015.64 1015.73 1015.88 1016.06 1016.18 1016.28 1016.02 1016.11 1016.19 1016.02 1016.04 1015.75 1015.27 1015.09 1015.03 1014.92 1014.98 1014.70 1014.49 1014.41
1008.93 1009.51 1009.97 1010.57 1011.14 1011.60 1012.32 1012.77 1013.17 1013.50 1013.90 1014.23 1014.39 1014.62 1014.78 1014.91 1015.02 1015.24 1015.42 1015.29 1015.09 1015.00 1014.96 1015.03 1015.26 1015.46 1015.66 1015.73 1015.73 1015.76 1015.83 1015.67 1015.56 1015.41 1014.73 1014.66 1014.57 1014.73 1014.64 1014.64 1014.66 1014.47 1013.61
1008.53 1009.04 1009.82 1010.25 1010.71 1011.47 1012.13 1012.60 1012.98 1013.43 1013.72 1014.06 1014.24 1014.36 1014.59 1014.66 1014.89 1015.05 1015.12 1015.18 1015.10 1014.89 1014.67 1014.78 1014.86 1014.65 1014.97 1015.00 1015.08 1015.19 1015.22 1015.21 1015.18 1014.96 1014.78 1014.38 1014.30 1014.31 1014.40 1014.31 1014.16 1014.01 1013.55
1008.19 1008.81 1009.35 1009.93 1010.64 1011.15 1011.87 1012.32 1012.70 1013.26 1013.82 1014.33 1014.66 1014.68 1014.16 1014.13 1014.38 1014.64 1014.92 1015.17 1014.78 1014.46 1014.40 1014.47 1014.57 1014.67 1014.72 1014.83 1014.75 1014.56 1014.47 1014.40 1014.40 1014.48 1014.37 1014.07 1014.17 1014.17 1014.10 1014.03 1013.98 1013.72 1013.41
1007.11 1008.16 1008.70 1009.72 1009.62 1010.56 1010.81 1011.28 1011.80 1013.08 1012.99 1013.77 1014.36 1014.05 1013.79 1013.84 1013.98 1014.17 1014.58 1014.65 1014.18 1013.96 1014.03 1014.24 1014.41 1014.50 1014.49 1014.83 1014.66 1014.45 1014.18 1013.88 1013.59 1014.27 1014.47 1014.37 1014.24 1014.10 1013.98 1013.92 1013.59 1013.48 1013.04
1006.83 1007.29 1007.82 1008.66 1008.62 1009.01 1009.37 1010.19 1010.36 1012.05 1012.56 1013.27 1013.44 1013.53 1013.57 1013.56 1013.60 1013.95 1014.24 1014.08 1013.77 1013.60 1013.77 1013.97 1014.20 1014.40 1014.69 1014.82 1014.62 1014.42 1014.36 1014.04 1014.09 1014.08 1014.05 1013.80 1013.55 1013.28 1013.46 1013.29 1013.06 1012.87 1012.84
1006.26 1006.97 1007.65 1007.67 1007.64 1008.61 1010.13 1009.19 1011.05 1010.86 1011.74 1012.75 1012.95 1012.91 1013.08 1013.23 1013.40 1013.91 1014.14 1013.88 1013.54 1013.44 1013.38 1013.44 1013.67 1014.23 1014.59 1014.74 1014.74 1014.54 1014.40 1014.42 1014.16 1014.13 1013.86 1013.52 1013.26 1012.91 1012.49 1012.42 1012.61 1012.66 1012.54
1005.91 1006.55 1007.12 1007.93 1008.07 1008.48 1009.55 1010.22 1009.84 1010.57 1011.40 1011.87 1012.38 1012.40 1012.56 1012.94 1013.54 1013.88 1013.97 1013.82 1013.72 1013.43 1013.18 1013.29 1013.70 1014.30 1014.47 1014.62 1014.61 1014.41 1014.42 1014.43 1013.73 1013.26 1013.27 1012.96 1012.73 1012.23 1011.93 1012.16 1012.34 1012.48 1012.58
1005.70 1006.40 1006.93 1007.36 1007.63 1007.91 1008.38 1008.89 1009.60 1010.46 1010.62 1011.42 1011.71 1011.79 1012.14 1012.54 1013.18 1013.90 1013.94 1013.85 1013.83 1013.66 1013.41 1013.78 1014.09 1014.15 1014.08 1014.07 1014.03 1014.06 1014.06 1013.49 1013.03 1012.76 1012.35 1012.17 1012.22 1012.22 1012.16 1012.15 1012.23 1012.50 1012.73
1005.13 1005.85 1006.69 1007.26 1007.74 1007.81 1008.20 1009.10 1009.49 1009.92 1010.44 1010.95 1011.28 1011.41 1011.67 1012.15 1012.58 1013.19 1013.58 1013.81 1014.02 1013.85 1013.89 1013.68 1013.85 1013.90 1013.75 1013.66 1013.62 1013.24 1012.99 1012.75 1012.54 1012.22 1011.97 1011.82 1011.89 1011.91 1012.00 1012.10 1012.10 1012.42 1012.70
1004.83 1005.33 1005.99 1006.54 1007.34 1007.64 1008.49 1009.20 1009.59 1009.66 1010.24 1010.73 1011.02 1011.15 1011.53 1011.84 1012.10 1012.53 1012.89 1013.13 1013.28 1013.69 1013.71 1013.43 1013.17 1012.98 1012.89 1012.73 1012.57 1012.55 1012.48 1012.36 1012.11 1011.76 1011.58 1011.86 1011.93 1011.85 1011.74 1011.90 1012.14 1012.22 1012.49
1004.92 1005.23 1005.67 1006.32 1007.01 1007.89 1009.06 1010.07 1010.62 1010.86 1011.10 1011.24 1011.46 1011.56 1011.84 1012.27 1012.49 1012.92 1013.35 1013.59 1013.77 1013.83 1013.46 1013.09 1012.95 1012.96 1012.62 1012.39 1012.29 1012.18 1012.14 1012.23 1012.07 1011.77 1011.71 1011.68 1011.61 1011.46 1011.30 1011.40 1011.77 1012.08 1012.25
1004.93 1005.45 1005.83 1006.39 1006.90 1007.78 1008.55 1009.30 1010.13 1011.60 1011.92 1012.09 1012.32 1012.45 1012.58 1012.50 1013.12 1013.53 1013.84 1013.85 1013.88 1013.71 1013.06 1012.77 1012.64 1012.61 1012.68 1012.61 1012.44 1012.27 1012.15 1012.07 1012.11 1011.97 1011.80 1011.76 1011.67 1011.57 1011.66 1011.29 1011.74 1012.06 1012.14
1005.06 1005.41 1005.82 1006.26 1006.51 1007.19 1007.93 1008.86 1009.38 1010.17 1011.00 1011.88 1012.84 1012.91 1012.96 1012.91 1013.33 1013.87 1014.17 1014.00 1013.62 1013.25 1012.69 1012.31 1012.09 1012.37 1012.35 1012.11 1011.95 1011.81 1011.80 1011.89 1011.99 1011.94 1011.79 1011.64 1011.64 1011.65 1011.58 1011.64 1011.77 1011.89 1012.10
1005.51 1005.51 1005.72 1005.95 1006.21 1006.88 1007.79 1008.49 1009.02 1009.51 1009.89 1010.63 1011.83 1013.01 1013.64 1013.81 1013.65 1013.65 1013.76 1012.97 1012.53 1012.30 1012.00 1011.90 1011.87 1011.86 1011.82 1011.80 1011.62 1011.75 1011.72 1011.75 1011.92 1011.86 1011.86 1011.86 1011.80 1011.66 1011.56 1011.58 1011.63 1011.81 1012.04
1005.17 1004.79 1005.29 1005.61 1006.14 1006.99 1007.65 1007.99 1008.45 1009.07 1009.61 1009.83 1010.41 1011.08 1012.39 1013.27 1013.02 1012.63 1012.17 1012.15 1012.18 1011.86 1011.59 1011.64 1011.53 1011.73 1011.69 1011.74 1011.77 1011.70 1011.52 1011.46 1011.55 1011.69 1011.67 1011.79 1011.88 1011.83 1011.75 1011.71 1011.64 1011.79 1012.10
1004.05 1004.68 1005.02 1005.33 1005.84 1006.60 1007.20 1007.62 1007.86 1008.43 1008.83 1009.23 1009.63 1010.43 1011.13 1011.42 1011.40 1011.21 1011.06 1011.08 1011.17 1011.16 1011.36 1011.48 1011.51 1011.47 1011.40 1011.52 1011.58 1011.63 1011.66 1011.53 1011.56 1011.65 1011.82 1011.70 1011.65 1011.58 1011.62 1011.66 1011.78 1011.92 1012.10
1003.72 1004.20 1004.84 1005.18 1005.73 1006.47 1006.90 1007.20 1007.58 1008.06 1008.53 1008.93 1009.46 1010.57 1011.60 1011.15 1010.73 1010.59 1010.54 1010.58 1010.73 1011.01 1011.27 1011.31 1011.13 1011.20 1011.40 1011.48 1011.48 1011.41 1011.36 1011.34 1011.45 1011.57 1011.65 1011.65 1011.81 1011.82 1011.76 1011.84 1011.88 1012.12 1012.43
1004.21 1004.44 1004.96 1005.42 1005.74 1006.19 1006.75 1007.12 1007.47 1007.85 1008.31 1008.58 1008.98 1009.70 1010.49 1010.26 1009.99 1010.00 1010.11 1010.24 1010.37 1010.54 1010.86 1011.10 1011.09 1011.02 1011.02 1011.15 1011.26 1011.13 1010.87 1010.77 1010.99 1011.41 1011.63 1011.74 1011.77 1011.81 1011.99 1012.16 1012.31 1012.50 1012.72
1004.93 1004.94 1005.12 1005.50 1005.60 1006.23 1006.36 1006.85 1007.41 1007.86 1008.07 1008.48 1008.69 1009.00 1009.26 1009.34 1009.41 1009.57 1009.81 1009.98 1010.07 1010.21 1010.44 1010.75 1010.96 1011.00 1011.04 1010.86 1010.74 1010.69 1010.56 1010.41 1010.39 1010.72 1011.08 1011.49 1011.70 1011.90 1011.97 1012.06 1012.42 1012.62 1012.83
1004.87 1005.32 1005.49 1005.79 1005.45 1006.07 1006.58 1006.67 1007.21 1007.58 1008.07 1008.44 1008.46 1008.64 1008.85 1008.93 1009.22 1009.27 1009.51 1009.76 1009.82 1010.07 1010.24 1010.46 1010.46 1010.74 1010.77 1010.90 1010.80 1010.68 1011.40 1011.45 1010.62 1010.86 1010.68 1011.24 1011.91 1012.03 1012.08 1012.24 1012.42 1012.60 1012.81
1004.36 1004.79 1005.38 1005.79 1006.09 1005.87 1006.11 1006.48 1007.10 1007.55 1007.85 1008.03 1008.04 1008.25 1008.52 1008.77 1008.99 1009.05 1009.26 1009.31 1009.37 1009.59 1009.81 1010.00 1010.14 1010.50 1010.76 1010.71 1010.78 1011.42 1011.73 1011.85 1011.38 1011.43 1010.90 1011.06 1011.44 1011.56 1011.64 1011.62 1011.63 1011.28 1011.46
Wind_Speed
15 13 13 12 11 10 8 8 7 5 7 8 7 6 5 6 7 7 7 5 6 6 5 4 5 4 5 4 4 4 5 5 7 6 4 4 5 6 6 6 6 6 6
14 14 14 12 11 12 10 10 7 7 6 8 7 6 5 5 6 9 8 7 8 7 6 7 7 5 6 6 6 6 6 6 7 9 7 6 6 5 5 6 6 5 7
14 13 14 14 13 13 12 10 9 7 6 7 6 6 5 4 4 8 9 9 9 8 9 9 9 8 8 7 7 7 7 6 7 8 8 6 6 5 6 6 7 7 6
14 15 14 15 14 13 12 11 10 8 7 8 7 6 5 5 5 6 7 8 9 9 9 9 9 9 10 9 9 9 8 8 7 8 9 7 8 6 6 7 7 6 7
16 16 15 14 14 13 12 11 11 9 9 8 8 6 5 6 5 7 8 8 9 10 10 9 11 11 9 10 6 9 8 8 7 7 8 9 9 7 8 4 7 7 6
17 16 14 14 13 14 12 11 11 10 9 7 7 7 7 7 8 7 5 7 9 9 10 10 10 8 10 12 12 12 11 9 11 9 9 10 11 9 7 6 5 6 8
16 15 13 13 13 12 12 12 10 10 8 9 7 7 6 7 8 8 7 5 5 6 8 7 7 9 7 10 9 11 11 13 14 11 11 11 10 9 8 8 9 7 8
13 12 13 13 11 10 9 9 8 3 4 4 3 6 11 6 6 7 5 8 7 7 7 7 8 9 9 7 8 9 8 8 9 8 11 12 11 10 9 9 9 8 8
16 13 11 11 13 11 11 9 8 5 6 7 9 13 13 10 8 6 5 6 6 8 7 7 8 9 6 3 7 9 7 7 2 5 7 9 10 10 8 6 7 7 8
16 16 15 14 14 13 11 11 10 9 10 9 8 10 11 8 6 6 6 6 7 6 6 7 8 8 6 5 6 6 6 7 6 8 7 8 8 8 9 9 8 8 7
12 11 11 13 10 10 8 11 13 12 9 9 8 8 8 7 6 4 6 7 6 6 6 6 4 7 5 6 5 5 4 5 7 7 7 6 6 7 7 5 6 6 7
13 12 10 8 9 9 13 14 10 9 10 8 8 6 5 5 2 5 4 10 3 7 6 4 2 2 2 5 5 4 3 5 6 6 5 7 6 7 4 4 3 3 1
14 14 12 8 7 8 9 8 7 8 8 7 7 6 6 6 5 5 4 6 7 3 2 1 1 5 6 7 10 7 8 7 7 8 9 8 6 7 5 2 2 1 1
13 12 11 11 11 10 7 7 7 8 8 7 7 6 6 5 5 5 4 4 4 4 4 3 4 6 7 7 6 7 7 7 8 9 9 8 7 6 6 5 3 3 2
13 12 11 9 11 8 6 2 5 6 4 7 7 6 6 6 6 6 5 5 4 2 3 3 5 5 6 6 5 5 5 6 7 8 8 7 7 5 6 3 3 2 4
11 10 10 9 9 8 7 5 11 9 5 5 4 3 3 5 7 9 9 10 8 7 4 4 5 6 6 5 5 5 5 5 6 6 6 6 7 5 5 4 3 4 5
10 11 9 9 9 8 8 8 8 3 7 8 5 1 3 5 9 9 9 9 6 3 4 4 5 4 6 5 5 5 5 4 4 3 3 2 3 4 2 5 4 4 4
6 10 10 10 10 10 9 8 8 8 8 7 6 4 5 8 9 8 7 7 4 4 4 5 6 4 5 5 4 3 4 4 4 4 4 4 3 4 4 4 4 4 2
8 8 9 9 9 9 9 9 8 7 6 6 6 4 6 6 8 8 5 5 5 5 5 6 5 5 6 6 5 4 4 4 3 3 3 4 4 3 4 4 4 3 3
9 13 10 10 9 9 8 8 7 6 5 5 4 4 6 7 6 6 6 4 4 5 5 5 6 5 5 5 5 4 4 3 2 2 3 3 3 3 4 3 2 2 2
10 9 9 8 9 8 8 8 7 6 6 5 5 4 5 5 4 4 4 5 4 4 4 4 4 5 5 3 3 3 3 2 1 2 2 2 2 2 2 1 2 3 5
9 10 9 9 8 8 8 7 7 7 7 6 6 5 6 6 3 3 3 3 3 2 2 4 4 3 3 2 2 2 2 2 1 1 1 0 1 1 1 3 4 5 6
5 7 8 7 7 8 8 7 7 7 7 6 6 6 6 5 4 4 3 3 3 2 1 2 2 2 1 1 3 2 3 1 1 2 1 1 1 2 3 4 5 6 5
2 1 4 6 9 8 9 9 8 7 7 6 5 4 4 3 4 4 3 3 3 2 3 2 1 2 1 1 0 0 1 3 4 4 3 3 4 4 6 7 6 6 5
5 3 4 6 10 9 8 8 8 8 7 5 5 4 4 3 4 4 4 4 3 3 4 3 3 1 1 1 3 4 6 2 5 3 6 7 5 5 6 6 6 5 6
9 9 5 5 8 9 9 8 7 7 7 6 5 5 4 4 4 4 5 5 4 4 3 4 4 3 3 4 3 8 6 2 3 3 4 6 6 7 6 6 6 4 5
Wind_Direction
190 188 199 203 208 209 209 207 205 200 210 207 210 220 231 228 222 216 222 230 227 222 231 232 244 245 260 222 231 241 245 236 268 281 286 303 285 262 265 252 256 260 251
185 183 195 198 203 209 215 208 203 205 197 203 205 210 221 233 228 225 226 218 226 236 237 236 248 245 245 249 246 248 248 237 261 266 288 272 263 282 274 268 263 245 257
180 183 192 200 201 212 212 212 208 211 217 211 209 219 223 232 233 216 214 231 234 240 243 239 246 237 249 262 258 261 250 237 233 260 273 268 279 275 272 257 259 255 250
185 187 193 197 200 209 210 212 212 213 217 217 215 225 237 233 235 249 241 248 250 250 242 245 252 247 256 256 253 255 253 255 239 245 254 263 262 266 264 273 265 242 263
190 193 197 192 195 203 209 208 214 217 219 222 227 219 220 226 236 243 245 253 255 256 257 250 243 245 247 250 249 250 249 241 245 247 253 259 258 257 253 251 264 280 260
192 198 195 194 195 197 203 209 213 221 228 231 231 236 229 230 190 204 240 249 253 256 258 261 262 243 242 233 239 249 256 258 256 256 258 256 267 258 251 247 248 262 274
197 193 197 191 190 198 198 202 206 213 219 223 220 206 234 243 214 225 224 255 269 274 263 260 271 263 247 261 235 228 243 242 244 260 261 262 268 261 256 265 250 245 257
190 191 187 188 186 185 187 206 209 175 139 66 12 276 272 262 216 230 212 274 263 257 256 259 265 270 264 269 271 273 270 263 248 248 252 270 269 277 271 273 283 272 257
187 177 181 183 172 166 178 177 150 169 150 192 207 221 238 249 230 244 251 255 259 257 257 257 257 260 267 195 262 272 282 280 208 233 279 297 293 282 267 281 252 256 258
184 186 163 186 179 172 175 171 174 190 184 198 205 227 232 238 199 212 205 246 252 262 260 255 225 264 133 185 256 277 277 292 308 308 303 298 289 287 225 235 248 249 246
183 185 164 194 171 163 196 207 201 187 175 195 202 193 199 202 156 158 206 234 248 250 253 258 258 174 207 229 248 244 268 320 287 284 289 291 289 287 271 224 237 245 253
182 192 177 167 189 192 188 192 182 175 187 179 180 183 189 181 186 145 233 231 268 248 264 287 323 101 176 207 231 263 276 275 273 280 282 285 283 274 275 241 237 269 310
174 185 202 203 203 195 194 181 164 181 177 185 190 194 190 190 179 135 132 154 184 221 280 77 182 203 210 227 226 230 226 260 275 279 282 283 291 286 289 223 182 100 83
177 179 180 186 192 194 184 166 171 178 181 182 191 202 199 198 204 192 178 159 159 200 184 225 303 282 264 279 274 236 265 277 281 280 279 282 278 266 240 226 214 187 243
167 165 168 167 182 162 142 166 185 182 180 186 198 201 205 207 204 186 191 197 196 115 280 276 294 301 293 283 277 279 290 295 288 284 273 262 268 263 245 188 224 200 249
157 159 162 158 159 157 155 136 51 44 40 22 343 280 165 43 118 124 118 113 123 175 229 289 315 311 293 291 296 303 307 323 325 318 304 275 262 236 232 219 236 248 258
161 153 148 156 158 155 167 175 175 102 57 44 33 33 4 143 145 138 141 145 145 202 270 287 283 291 295 306 301 301 297 308 303 302 304 320 314 293 281 273 280 272 264
155 148 162 164 166 169 171 184 191 187 195 183 71 35 93 128 130 135 155 176 195 207 255 282 291 292 261 259 264 268 282 291 296 297 294 296 293 281 277 274 264 260 231
177 164 173 166 165 167 176 184 196 198 188 159 149 139 95 94 119 135 185 257 267 280 287 288 284 271 277 282 282 275 279 302 309 303 301 299 295 281 271 263 261 235 161
194 158 163 165 155 174 182 185 175 170 174 170 182 156 147 175 199 190 203 215 245 264 285 284 286 297 285 284 290 297 294 296 300 301 295 299 300 286 279 275 215 152 141
166 153 151 162 163 176 180 183 170 171 177 175 162 160 177 219 202 201 192 194 249 287 283 281 295 292 289 301 312 302 304 289 271 277 279 297 304 282 277 247 135 114 110
169 159 170 172 168 170 178 174 170 175 176 169 153 133 181 241 221 208 209 230 248 235 295 298 302 318 307 311 281 271 265 274 282 325 338 312 301 299 135 117 109 110 110
157 142 157 171 176 154 163 173 177 179 179 171 166 156 180 210 205 212 223 236 201 189 185 278 336 321 277 254 252 269 299 349 69 93 85 86 75 99 102 101 111 104 110
95 74 142 184 156 177 172 172 179 180 177 177 176 177 188 203 213 208 232 217 202 188 179 195 271 356 40 264 134 62 107 104 113 119 114 119 115 136 126 126 114 111 114
155 153 178 192 154 177 174 178 179 174 181 184 182 186 195 210 222 209 211 208 199 212 197 213 202 172 157 118 76 78 90 61 55 53 122 118 113 114 128 134 140 143 152
185 166 173 207 191 190 175 170 176 178 183 192 191 189 199 217 219 216 212 200 196 200 209 202 194 205 206 181 143 108 135 154 132 8 117 132 144 150 161 164 175 179 175